Flag for Saudi Arabia Weather past 2 weeks in Makkah, Saudi Arabia

Now
102 °F

Sunny.


Feels Like: 106 °F
Forecast: 82 / 102 °F
Wind: 3 mph from North

Location: Mecca Airport

Current Time: Jul 25, 2014 at 12:23:12 PM

Latest Report: Jul 25, 2014 at 12:00 PM


Visibility: 10 mi

Pressure: 29.71 "Hg

Humidity: 29%

Dew point: 64 °F

Location of MakkahLocation

Historic Weather in Makkah — Graph

°F

Makkah temperature yesterday

Maximum temperature yesterday: 109 °F (at 3:00 PM)
Minimum temperature yesterday: 88 °F (at 7:00 AM)
Average temperature yesterday: 98 °F

Past Weeks' High & Low Weather Summary

 TemperatureHumidityPressure
High118 °F (Jul 14, 2:00 PM)100% (Jul 17, 2:00 AM)29.77 "Hg (Jul 17, 2:00 AM)
Low84 °F (Jul 22, 6:00 AM)9% (Jul 14, 2:00 PM)29.50 "Hg (Jul 14, 3:00 PM)
Average98 °F31%29.68 "Hg
* Reported Jul 10 11:00 AM — Jul 25 11:00 AM, Makkah, Weather by CustomWeather, © 2014

Note: Actual official high and low records may vary slightly from our data, if they occured in-between our weather recording intervals... More about our weather records

Advertising

Makkah weather history for previous 24 hours

 ConditionsComfort  
Time TempWeatherWind HumidityBarometerVisibility
11:00 AM
Jul 25
102 °FPassing clouds.3 mph33%29.74 "HgN/A
10:00 AM99 °FScattered clouds.3 mph39%29.74 "HgN/A
9:00 AM95 °FSunny.3 mph39%29.74 "Hg10 mi
8:00 AM91 °FSunny.No wind44%29.74 "Hg10 mi
7:00 AM88 °FSunny.No wind55%29.71 "Hg10 mi
6:00 AM88 °FSunny.No wind55%29.71 "Hg10 mi
5:00 AM88 °FClear.No wind59%29.68 "Hg10 mi
4:00 AM90 °FClear.No wind43%29.68 "Hg10 mi
3:00 AM91 °FClear.No wind36%29.68 "Hg10 mi
2:00 AM91 °FClear.2 mph36%29.68 "Hg10 mi
1:00 AM93 °FClear.No wind34%29.68 "Hg10 mi
12:00 AM93 °FClear.2 mph34%29.68 "Hg10 mi
11:00 PM
Jul 24
95 °FClear.No wind32%29.71 "Hg10 mi
10:00 PM95 °FClear.2 mph32%29.68 "Hg10 mi
9:00 PM97 °FClear.3 mph28%29.68 "Hg10 mi
8:00 PM99 °FClear.3 mph25%29.65 "Hg10 mi
7:00 PM100 °FSunny.2 mph25%29.65 "Hg10 mi
6:00 PM104 °FSunny.2 mph23%29.62 "Hg10 mi
5:00 PM108 °FSunny.2 mph22%29.62 "Hg10 mi
4:00 PM108 °FSunny.2 mph23%29.62 "Hg10 mi
3:00 PM109 °FSunny.3 mph21%29.62 "Hg10 mi
2:00 PM108 °FSunny.5 mph20%29.65 "Hg10 mi
1:00 PM106 °FSunny.No wind23%29.68 "Hg10 mi
12:00 PM106 °FSunny.No wind26%29.68 "Hg10 mi
Weather by CustomWeather, © 2014

See weather overviewHow to use our weather pages